CAPE
0 0 0 0 0 0 0 0 0 0 0 0 0 0 0 0 0 0 0 0 0 0 0 0 0 0 0 0 0 0 0 0 0 0 0 0 0 0 0 0 0 0 0
0 0 0 0 0 0 0 0 0 0 0 0 0 0 0 0 0 0 0 0 0 0 0 0 0 0 0 0 0 0 0 0 0 0 0 0 0 0 0 0 0 0 0
0 1 0 0 0 0 0 0 0 0 0 0 0 0 0 0 0 0 0 0 0 0 0 0 0 0 0 0 0 0 0 0 0 0 0 0 0 0 0 0 0 0 0
0 1 0 0 0 0 0 0 0 0 0 0 0 0 0 0 0 0 0 0 0 0 0 0 0 0 0 0 0 0 0 0 0 0 0 0 0 0 0 0 0 0 0
0 0 0 0 0 0 0 0 0 0 0 0 0 0 0 0 0 0 0 0 0 0 0 0 0 0 0 0 0 0 0 0 0 0 0 0 0 0 0 0 0 0 0
0 0 0 0 0 0 0 0 0 0 0 0 0 0 0 0 0 0 0 0 0 0 0 0 0 0 0 0 0 0 0 0 0 0 0 0 0 0 0 0 0 0 0
0 0 0 0 0 0 0 0 0 0 0 0 0 0 0 0 0 0 0 0 0 0 0 0 0 0 0 0 0 0 0 0 0 0 0 0 0 0 0 0 0 0 0
0 0 0 0 0 0 0 0 0 0 0 0 0 0 0 0 0 0 0 0 0 0 0 0 0 0 0 0 0 0 0 0 0 0 0 0 0 0 0 0 0 0 0
0 0 0 0 0 0 0 0 0 0 0 0 0 0 0 0 0 0 1 1 0 0 0 0 0 0 0 0 0 0 0 0 0 0 0 0 0 0 0 0 0 0 0
0 0 0 0 0 0 0 0 0 0 0 0 0 0 0 0 0 0 0 0 0 0 0 0 0 0 0 0 0 0 0 0 0 0 0 0 0 0 0 0 0 0 0
0 0 0 0 0 0 0 0 0 0 0 0 0 0 0 0 0 0 0 0 1 0 0 0 0 0 0 0 0 0 0 0 0 0 0 0 0 0 0 0 0 0 0
0 0 0 0 0 0 0 0 0 0 0 0 0 0 0 0 0 0 0 0 0 1 1 0 0 2 1 0 1 0 1 0 0 0 0 0 0 0 0 0 0 0 0
0 0 0 0 0 0 0 0 0 0 0 0 0 0 0 0 0 0 0 0 0 0 1 0 3 0 0 0 1 1 0 0 0 0 0 0 0 0 0 0 0 0 0
0 0 0 0 0 0 0 0 0 0 0 0 0 0 0 0 0 0 0 0 0 0 0 0 3 5 7 4 1 1 2 0 0 0 0 0 0 0 0 0 0 0 0
0 0 0 0 0 0 0 0 0 0 0 0 0 0 0 0 0 1 1 3 1 0 2 0 0 0 0 5 4 2 0 0 0 0 0 0 0 0 0 0 0 0 0
0 0 0 0 0 0 0 0 0 0 0 0 1 1 0 1 2 3 3 9 12 17 13 1 0 0 0 0 3 0 0 0 0 0 0 0 0 0 0 0 0 0 0
0 0 0 0 0 0 0 0 0 0 0 0 0 0 0 1 1 2 2 2 4 8 4 3 5 0 0 0 1 0 0 0 0 0 0 0 0 0 0 0 0 0 0
0 0 0 0 0 0 0 0 0 0 0 0 0 0 0 1 3 4 6 6 0 0 0 0 0 1 0 0 0 0 0 0 0 0 0 0 0 0 0 0 0 0 0
0 0 0 0 0 0 0 0 0 0 0 0 0 0 0 0 3 3 3 1 0 0 0 1 2 0 0 0 0 0 0 0 0 0 0 0 0 0 0 0 0 0 0
0 0 0 1 0 1 0 0 0 0 0 0 0 0 0 0 0 0 2 1 2 1 0 0 0 0 11 0 0 0 0 0 0 0 0 0 0 0 0 0 0 0 0
0 0 0 0 0 0 0 0 0 0 0 0 0 0 5 1 0 0 0 0 0 2 0 2 0 3 0 0 0 0 0 0 0 0 0 0 0 0 0 0 0 0 0
0 0 0 0 0 0 0 0 0 0 0 0 0 0 2 1 0 0 0 0 0 0 0 1 0 0 1 0 0 0 0 0 0 0 0 0 0 0 0 0 0 0 0
0 0 0 0 0 0 0 0 0 0 0 0 0 0 0 0 0 0 0 0 0 0 2 1 0 0 1 0 0 0 0 0 0 0 0 0 0 0 0 0 0 0 0
0 0 0 0 0 0 0 0 0 0 0 0 0 0 0 0 0 0 0 0 1 1 1 3 1 0 1 0 0 0 0 0 0 0 0 0 0 0 0 0 0 0 0
0 0 0 0 0 0 0 0 0 0 0 0 0 0 0 0 0 0 0 1 1 1 0 1 1 1 0 0 0 0 0 1 0 0 0 0 0 0 0 0 0 0 0
0 0 0 0 0 0 0 0 0 0 0 0 0 0 0 0 0 0 1 1 1 0 0 0 1 0 0 0 0 0 0 0 0 0 0 0 0 0 0 0 0 0 0
CIN
0 0 0 0 0 0 0 0 0 0 0 0 0 0 0 0 0 0 0 0 0 0 0 0 0 0 0 0 0 0 0 0 0 0 0 0 0 0 0 0 0 0 0
0 0 0 0 0 0 0 0 0 0 0 0 0 0 0 0 0 0 0 0 0 0 0 0 0 0 0 0 0 0 0 0 0 0 0 0 0 0 0 0 0 0 0
0 0 0 0 0 0 0 0 0 0 0 0 0 0 0 0 0 0 0 0 0 0 0 0 0 0 0 0 0 0 0 0 0 0 0 0 0 0 0 0 0 0 0
0 0 0 0 0 0 0 0 0 0 0 0 0 0 0 0 0 0 0 0 0 0 0 0 0 0 0 0 0 0 0 0 0 0 0 0 0 0 0 0 0 0 0
0 0 0 0 0 0 0 0 0 0 0 0 0 0 0 0 0 0 0 0 0 0 0 0 0 0 0 0 0 0 0 0 0 0 0 0 0 0 0 0 0 0 0
0 0 0 0 0 0 0 0 0 0 0 0 0 0 0 0 0 0 0 0 0 0 0 0 0 0 0 0 0 0 0 0 0 0 0 0 0 0 0 0 0 0 0
0 0 0 0 0 0 0 0 0 0 0 0 0 0 0 0 0 0 0 0 0 0 0 0 0 0 0 0 0 0 0 0 0 0 0 0 0 0 0 0 0 0 0
0 0 0 0 0 0 0 0 0 0 0 0 0 0 0 0 0 0 0 0 0 0 0 0 0 0 0 0 0 0 0 0 0 0 0 0 0 0 0 0 0 0 0
0 0 0 0 0 0 0 0 0 0 0 0 0 0 0 0 0 0 0 0 0 0 0 0 0 0 0 0 0 0 0 0 0 0 0 0 0 0 0 0 0 0 0
0 0 0 0 0 0 0 0 0 0 0 0 0 0 0 0 0 0 0 0 0 0 0 0 0 0 0 0 0 0 0 0 0 0 0 0 0 0 0 0 0 0 0
0 0 0 0 0 0 0 0 0 0 0 0 0 0 0 0 0 0 0 0 -1 -1 0 0 0 0 0 -1 0 0 0 0 0 0 0 0 0 0 0 0 0 0 0
0 0 0 0 0 0 0 0 0 0 0 0 0 0 0 0 0 0 0 0 0 -1 -1 0 0 -1 -1 -1 -1 -1 -1 -1 0 0 0 0 0 0 0 0 0 0 0
0 0 0 0 0 0 0 0 0 0 0 0 0 0 0 0 0 0 0 0 0 -1 -1 -1 -1 -1 0 -2 -1 -1 -1 -1 0 0 0 0 0 0 0 0 0 0 0
0 0 0 0 0 0 0 0 0 0 0 0 0 0 0 0 0 0 0 0 0 0 0 0 -1 -1 0 -2 -1 -2 -1 0 0 0 0 0 0 0 0 0 0 0 0
0 0 0 0 0 0 0 0 0 0 0 0 0 0 0 0 0 -1 -2 -1 -3 0 -1 0 0 0 0 -3 -3 -2 -2 0 0 0 0 0 0 0 0 0 0 0 0
0 0 0 0 0 0 0 0 0 0 0 -1 -1 -1 -1 -2 -1 -2 -3 -1 -2 -1 -3 -1 0 0 0 -2 -2 0 0 0 0 0 0 0 0 0 0 0 0 0 0
0 0 0 0 0 0 0 0 0 0 0 0 0 -1 -2 -1 -2 -2 -2 -2 -2 -2 -3 -1 -1 0 0 0 -2 0 0 0 0 0 0 0 0 0 0 0 0 0 0
0 0 0 0 0 0 0 0 0 0 0 0 0 0 0 -1 -1 -2 -1 -2 -2 -2 0 0 0 -1 0 0 -3 0 0 0 0 0 0 0 0 0 0 0 0 0 0
0 0 0 0 0 0 0 0 0 0 0 0 0 0 0 -1 -1 -1 -2 -3 0 0 -2 -1 -3 0 0 -2 -2 0 0 0 0 0 0 0 0 0 0 0 0 0 0
0 0 0 -3 -2 -4 -3 0 0 0 0 0 0 0 0 0 0 0 -1 -1 -2 -4 0 0 0 0 -1 0 0 0 0 0 0 0 0 0 0 0 0 0 0 0 0
0 0 0 0 -1 0 0 0 0 0 0 0 0 0 -1 -3 0 -1 0 0 0 -1 0 -4 -2 0 0 0 0 0 0 0 0 0 0 0 0 0 0 0 0 0 0
0 0 0 0 0 0 0 0 0 0 -1 0 -1 0 -2 -3 0 0 0 0 0 -3 0 -2 0 -1 -3 0 0 0 0 0 0 0 0 0 0 0 0 0 0 0 0
0 0 0 0 0 0 0 0 0 0 0 0 0 0 0 0 0 0 0 0 0 -1 0 -1 -1 0 -1 0 0 0 0 0 0 0 0 0 0 0 0 0 0 0 0
0 0 0 0 0 0 0 0 0 0 0 0 0 0 0 0 0 0 0 -1 -1 -1 0 -1 0 0 -1 0 0 0 0 0 0 0 0 0 0 0 0 0 0 0 0
0 0 0 0 0 0 0 0 0 0 0 0 0 0 0 0 0 0 0 -1 -1 -1 -1 0 -1 0 0 0 0 0 0 0 0 0 0 0 0 0 0 0 0 0 0
0 0 0 0 0 0 0 0 0 0 0 0 0 0 0 0 -1 -1 -1 -1 -1 -1 -1 0 -1 0 0 0 0 0 0 0 0 0 0 0 0 0 0 0 0 0 0
Wind_Speed
22 20 20 20 20 19 19 19 19 18 19 19 18 18 18 18 18 18 18 18 19 19 19 19 20 20 20 19 20 22 25 27 30 28 26 25 25 25 27 27 29 30 30
21 21 21 20 20 19 19 19 19 18 18 18 18 18 18 18 18 19 19 19 19 20 20 19 20 20 21 20 19 19 20 21 26 31 26 28 28 27 28 30 31 31 32
20 20 20 20 20 20 20 20 19 19 19 19 19 19 19 19 19 19 19 19 19 19 20 20 21 21 22 22 22 22 21 20 21 23 24 22 23 25 28 27 28 31 32
21 20 20 20 20 20 20 20 20 20 20 21 20 21 21 20 20 20 19 20 20 20 20 20 21 22 22 23 22 23 23 23 23 23 23 24 24 25 26 28 29 27 30
20 20 21 21 20 20 20 20 20 20 21 21 22 22 22 21 21 21 21 21 21 22 21 21 21 21 22 23 24 24 24 25 25 26 27 26 27 28 29 29 32 32 32
20 20 20 20 21 21 21 22 22 22 22 22 23 23 23 23 22 23 23 23 23 23 23 23 23 23 24 24 23 23 24 25 26 27 28 29 30 30 30 31 33 34 33
23 22 22 22 22 22 22 23 23 24 24 25 25 25 26 25 25 26 26 26 26 26 25 25 25 24 24 24 25 25 26 26 27 28 30 30 31 30 31 33 34 34 36
24 24 24 25 25 25 25 25 25 25 26 26 26 26 27 27 27 27 28 28 29 28 28 28 28 27 26 26 27 27 27 27 27 27 28 29 30 31 32 33 35 36 36
25 25 25 26 27 28 29 29 29 29 29 28 28 29 29 29 28 28 29 29 30 30 30 29 29 29 28 27 29 30 29 28 26 27 29 30 31 31 31 33 35 37 38
27 27 27 27 28 29 30 30 30 30 31 31 32 32 32 33 31 31 30 30 32 32 32 30 29 29 29 28 29 30 32 31 29 29 29 28 28 30 29 30 31 35 36
30 30 30 30 30 31 31 30 31 31 32 33 34 34 35 35 35 35 34 32 32 33 32 32 31 30 30 30 29 30 30 28 30 30 30 29 29 29 28 28 29 31 34
32 32 32 32 31 31 31 31 31 32 33 33 33 34 33 33 33 34 35 35 34 35 35 33 32 32 31 31 31 30 30 28 30 31 31 31 30 30 28 29 29 30 30
33 33 33 32 32 31 31 31 31 30 31 32 32 32 32 31 30 31 33 34 35 36 35 35 35 35 34 33 32 31 30 28 30 30 31 30 28 28 29 29 29 29 30
35 34 33 33 32 31 30 29 29 29 30 30 30 30 30 30 29 28 29 29 30 32 34 35 35 35 34 33 33 32 30 27 29 29 30 28 28 29 29 29 31 31 33
35 34 34 32 32 31 30 29 29 29 29 29 30 30 30 31 30 29 30 30 29 29 31 30 32 33 34 32 31 30 28 26 27 28 28 28 28 28 28 28 29 30 31
34 33 33 32 31 29 30 30 28 30 31 32 33 33 32 33 34 34 33 33 32 32 32 32 31 31 32 33 30 27 27 28 28 27 27 27 27 27 28 27 28 29 31
32 32 31 30 29 29 28 29 30 27 28 29 30 31 32 33 34 34 34 35 34 33 34 34 33 30 30 30 28 27 27 27 25 25 25 25 25 25 26 26 26 27 29
31 31 29 29 28 28 27 27 27 28 29 29 28 28 30 31 32 33 33 33 34 33 34 34 34 32 30 29 28 27 26 25 25 25 25 24 24 25 25 25 25 27 28
29 29 29 28 28 27 27 27 27 28 29 30 29 29 28 29 30 31 31 32 33 34 33 33 34 33 30 28 28 27 26 25 25 24 24 24 24 24 24 23 24 26 28
29 29 28 27 26 26 26 26 27 28 29 29 30 30 29 30 30 30 29 30 31 32 32 33 34 33 31 27 27 26 26 26 25 24 24 23 23 22 22 22 24 26 27
28 27 28 28 27 26 26 26 27 28 29 29 29 29 29 31 31 30 30 30 31 31 31 32 31 31 28 27 26 25 25 25 23 23 22 22 21 21 21 22 23 25 26
26 27 26 27 26 26 26 26 26 27 28 28 28 28 30 29 30 30 30 30 30 31 31 31 31 29 27 26 24 23 23 22 21 20 20 20 19 19 19 21 22 24 25
25 25 24 24 24 25 25 24 25 25 26 26 27 28 28 29 29 30 31 30 31 31 30 30 30 30 27 25 23 21 20 19 18 16 17 17 17 17 18 21 22 24 26
21 22 23 24 22 23 23 23 24 25 26 27 27 27 28 28 29 30 30 30 30 31 31 30 30 29 27 23 21 19 18 16 15 15 14 14 15 15 17 20 21 23 24
19 21 22 23 22 23 23 24 25 26 27 28 29 29 29 29 30 30 30 30 30 31 31 30 29 28 25 22 19 16 14 12 12 12 12 12 13 14 16 18 20 22 22
19 20 21 20 21 22 24 25 26 27 28 29 29 29 29 30 30 30 30 30 31 31 32 30 28 25 22 17 14 11 9 9 9 9 10 10 12 14 16 18 19 20 20
Wind_Direction
279 281 282 282 284 285 285 287 288 290 292 293 294 295 297 298 298 298 299 298 298 298 298 298 299 301 302 305 303 301 293 290 287 291 293 296 299 301 301 302 302 299 298
281 281 281 284 285 285 285 287 289 289 291 292 292 293 295 296 297 296 297 299 297 297 297 297 297 298 297 302 303 305 306 307 295 287 295 294 296 301 301 301 300 300 298
285 284 283 283 283 284 286 287 288 288 289 290 291 291 290 291 295 298 298 298 299 299 298 296 296 296 296 296 297 297 300 305 306 303 303 309 307 307 305 308 307 305 301
284 284 284 285 285 285 287 287 287 287 286 287 288 289 290 292 294 297 298 297 297 298 298 298 296 295 295 295 296 296 296 297 299 300 302 304 307 308 309 309 308 313 311
286 284 284 285 286 286 286 287 287 287 287 287 286 287 289 291 292 293 295 294 294 295 296 297 297 297 296 296 295 296 296 296 296 297 297 300 301 303 305 306 305 308 309
287 286 287 286 287 286 286 285 284 284 286 286 287 287 288 289 292 292 292 293 292 292 292 294 295 295 295 294 295 297 297 296 295 296 297 297 298 300 302 303 304 305 304
286 286 286 286 286 286 287 286 285 285 286 285 286 286 286 289 290 290 290 290 289 289 290 291 291 293 293 293 294 294 295 295 296 296 294 296 297 300 302 301 302 302 301
289 287 286 285 284 285 285 285 286 286 286 286 286 287 287 288 290 290 290 288 287 288 288 288 288 289 290 291 293 293 293 295 296 295 295 297 299 301 301 301 302 302 303
291 290 289 288 285 284 283 283 284 284 284 284 285 286 286 287 289 290 289 288 287 286 287 287 287 288 289 289 289 289 291 293 295 296 297 298 299 300 302 302 300 300 301
289 289 289 288 287 286 285 285 285 284 283 284 284 284 284 284 286 287 287 287 286 286 286 287 287 286 287 288 287 288 288 290 293 295 296 298 300 302 303 303 303 301 302
289 288 288 288 287 286 286 286 285 285 285 284 284 284 283 283 283 283 283 284 285 286 286 287 288 288 286 285 287 287 288 293 293 294 296 298 300 301 303 305 305 304 302
288 288 288 288 287 287 286 286 285 285 284 285 285 286 286 286 285 284 282 281 282 282 284 286 287 288 287 286 285 286 288 290 292 292 294 295 297 299 303 306 307 306 306
287 287 288 288 288 287 285 285 285 285 285 285 286 287 288 289 289 288 286 284 283 281 282 283 284 285 285 284 283 283 285 287 289 290 292 294 297 300 303 305 307 308 308
283 285 286 286 286 286 285 284 284 284 285 286 287 288 289 291 291 292 291 291 289 287 285 283 282 283 282 282 282 282 281 283 286 289 291 295 298 299 301 304 304 306 306
281 282 283 285 285 284 283 283 283 284 285 286 287 288 289 289 291 292 292 291 291 290 289 288 286 283 282 281 280 280 281 281 284 288 291 293 296 299 301 304 305 306 306
280 281 282 283 283 284 283 284 285 284 285 285 285 286 288 288 289 290 290 290 289 289 287 285 285 285 283 280 280 279 279 280 282 286 289 292 294 297 300 303 306 307 307
278 280 281 281 281 282 282 283 284 289 290 289 288 288 288 289 289 289 289 289 288 288 286 285 284 284 286 284 281 279 280 281 283 284 286 290 293 296 299 301 305 307 309
278 278 279 280 280 281 282 284 286 287 288 291 294 293 292 291 291 290 290 290 289 288 287 285 285 285 284 285 283 282 283 283 282 282 284 288 291 293 295 298 302 306 309
276 277 277 277 279 281 282 283 285 287 289 291 294 295 296 296 295 294 292 290 288 289 289 289 289 286 285 284 285 284 283 283 282 280 282 285 288 289 292 296 300 304 308
274 273 275 276 277 279 281 283 285 288 290 292 293 294 297 297 295 295 295 294 293 292 291 290 287 290 287 285 285 286 284 282 281 279 280 283 285 286 289 293 299 303 307
273 274 273 272 275 278 281 282 285 288 290 292 294 296 298 295 295 297 297 298 296 295 295 294 292 289 286 287 285 284 285 281 281 279 279 281 282 283 288 293 298 303 306
273 274 274 272 275 277 280 283 285 288 290 292 294 296 297 299 297 297 298 300 300 298 297 296 295 293 290 287 285 283 285 281 281 279 280 280 281 282 287 293 298 303 307
274 274 273 274 276 278 280 283 286 290 292 294 296 298 299 299 299 299 299 301 301 301 300 297 295 294 292 288 286 282 282 281 280 280 280 279 279 281 287 292 297 302 306
277 275 275 276 278 279 281 284 287 290 292 294 296 298 300 301 301 301 301 303 303 302 301 300 297 294 293 289 286 283 281 282 283 283 281 279 279 283 290 295 300 303 308
278 278 279 279 279 280 282 285 287 290 292 294 295 296 298 300 301 301 302 302 303 303 302 301 299 295 292 288 283 280 278 275 283 285 284 283 283 287 293 297 302 306 310
285 286 283 284 283 283 284 286 288 290 292 293 295 295 296 297 299 301 301 302 302 302 302 301 298 295 292 287 279 273 272 277 284 284 285 287 289 292 297 301 304 308 312